Decatur, IL

9:08 PM CDT on June 25, 2017 (GMT -0500)
Decatur

Weather History for KDEC - November, 2012

Change the Weather History Date:

Tuesday, November 6, 2012

  Actual Average Record
Temperature  
Mean Temperature 40 °F 47 °F  
Max Temperature 45 °F 57 °F 69 °F (1996)
Min Temperature 34 °F 38 °F 23 °F (2010)
Degree Days  
Heating Degree Days 25 18  
Month to date heating degree days 145 101  
Since 1 July heating degree days 606 519  
Cooling Degree Days 0 0  
Month to date cooling degree days 0 0  
Year to date cooling degree days 1427 1048  
Moisture  
Dew Point 40 °F    
Average Humidity 85    
Maximum Humidity 100    
Minimum Humidity 70    
Precipitation  
Precipitation 0.11 in 0.10 in 0.27 in (2013)
Month to date precipitation 0.30 0.64  
Year to date precipitation 23.00 33.12  
Sea Level Pressure  
Sea Level Pressure 29.96 in    
Wind  
Wind Speed 5 mph (SW)    
Max Wind Speed 12 mph    
Max Gust Speed 25 mph    
Visibility 5 miles    
Events Rain    
T = Trace of Precipitation, MM = Missing Value Source: NWS Daily Summary

Daily Weather History Graph

Daily Weather History Graph

Search for Another Location

Airport or City:

Trip Planner

Search our weather history database for the weather conditions in past years. The results will help you decide how hot, cold, wet, or windy it might be!

Date:

Astronomy

Nov. 06, 2012 Rise Set
Actual Time 6:30 AM CST 4:47 PM CST
Civil Twilight 6:02 AM CST 5:15 PM CST
Nautical Twilight 5:29 AM CST 5:47 PM CST
Astronomical Twilight 4:58 AM CST 6:19 PM CST
Moon 11:26 PM CST (11/6) 12:22 PM CST (11/6)
Length of Visible Light 11h 13m
Length of Day
10h 16m
Waning Gibbous, 53% of the Moon is Illuminated
Nov 6
Waning Gibbous
Nov 6
Last Quarter
Nov 13
New
Nov 20
First Quarter
Nov 28
Full

Hourly Weather History & Observations

Time (CST) Temp. Windchill Dew Point Humidity Pressure Visibility Wind Dir Wind Speed Gust Speed Precip Events Conditions
12:54 AM 37.9 °F 34.4 °F 34.0 °F 86% 30.10 in 10.0 mi ENE 4.6 mph - N/A   Overcast
1:54 AM 37.9 °F 35.5 °F 35.1 °F 89% 30.10 in 10.0 mi NE 3.5 mph - N/A   Overcast
2:54 AM 37.9 °F - 35.1 °F 89% 30.08 in 10.0 mi Calm Calm - N/A   Overcast
3:54 AM 34.0 °F 29.8 °F 32.0 °F 92% 30.06 in 9.0 mi East 4.6 mph - N/A   Mostly Cloudy
4:54 AM 36.0 °F - 35.1 °F 97% 30.08 in 7.0 mi Calm Calm - N/A   Overcast
5:54 AM 37.0 °F 33.3 °F 35.1 °F 93% 30.06 in 8.0 mi East 4.6 mph - N/A   Overcast
6:54 AM 36.0 °F - 35.1 °F 97% 30.06 in 6.0 mi Calm Calm - N/A   Overcast
7:54 AM 37.9 °F - 35.1 °F 89% 30.05 in 7.0 mi Calm Calm - N/A   Overcast
8:54 AM 41.0 °F 37.1 °F 35.1 °F 79% 30.05 in 8.0 mi South 5.8 mph - N/A   Overcast
9:54 AM 42.1 °F 39.2 °F 36.0 °F 79% 30.03 in 9.0 mi SSW 4.6 mph - N/A   Overcast
10:54 AM 43.0 °F 40.3 °F 36.0 °F 76% 30.03 in 8.0 mi WSW 4.6 mph - N/A   Overcast
11:54 AM 45.0 °F 39.7 °F 36.0 °F 71% 29.99 in 10.0 mi SSW 10.4 mph - N/A   Overcast
12:54 PM 45.0 °F 40.6 °F 37.9 °F 76% 29.96 in 8.0 mi South 8.1 mph - 0.00 in Rain Light Rain
1:54 PM 44.1 °F 39.5 °F 39.9 °F 85% 29.94 in 5.0 mi SW 8.1 mph - 0.02 in Rain Light Rain
2:16 PM 44.6 °F 43.1 °F 42.8 °F 93% 29.93 in 4.0 mi WSW 3.5 mph - 0.01 in Rain Light Rain
2:54 PM 43.0 °F 40.3 °F 42.1 °F 97% 29.95 in 2.0 mi SW 4.6 mph - 0.02 in Rain Light Rain
3:17 PM 42.8 °F 38.6 °F 42.8 °F 100% 29.93 in 3.0 mi SSW 6.9 mph - 0.01 in Rain Light Rain
3:24 PM 42.8 °F 39.3 °F 42.8 °F 100% 29.93 in 2.0 mi SSW 5.8 mph - 0.02 in Rain Light Rain
3:54 PM 43.0 °F 41.3 °F 43.0 °F 100% 29.94 in 2.0 mi South 3.5 mph - 0.02 in Rain Light Rain
4:54 PM 43.0 °F 39.5 °F 43.0 °F 100% 29.94 in 2.0 mi South 5.8 mph - 0.02 in Rain Light Rain
5:10 PM 42.8 °F 37.5 °F 42.8 °F 100% 29.92 in 4.0 mi South 9.2 mph - 0.00 in Rain Light Rain
5:24 PM 42.8 °F 38.6 °F 42.8 °F 100% 29.92 in 5.0 mi South 6.9 mph - 0.00 in   Overcast
5:54 PM 42.1 °F 37.1 °F 42.1 °F 100% 29.94 in 4.0 mi South 8.1 mph - 0.00 in   Overcast
6:54 PM 42.1 °F 37.1 °F 42.1 °F 100% 29.94 in 3.0 mi South 8.1 mph - 0.01 in Rain Light Rain
7:23 PM 42.8 °F 39.3 °F 42.8 °F 100% 29.92 in 3.0 mi South 5.8 mph - 0.01 in Rain Light Rain
7:35 PM 42.8 °F 39.3 °F 42.8 °F 100% 29.91 in 2.5 mi South 5.8 mph - 0.01 in Rain Light Rain
7:52 PM 42.8 °F 40.1 °F 42.8 °F 100% 29.91 in 2.5 mi SW 4.6 mph - 0.02 in Rain Light Rain
7:54 PM 43.0 °F 40.3 °F 43.0 °F 100% 29.93 in 2.5 mi SW 4.6 mph - 0.02 in Rain Light Rain
8:10 PM 42.8 °F 41.1 °F 42.8 °F 100% 29.92 in 2.0 mi SW 3.5 mph - 0.00 in   Overcast
8:42 PM 42.8 °F - 42.8 °F 100% 29.91 in 3.0 mi Calm Calm - 0.00 in   Overcast
8:54 PM 43.0 °F 39.5 °F 43.0 °F 100% 29.93 in 4.0 mi West 5.8 mph - 0.00 in   Overcast
9:54 PM 43.0 °F 38.2 °F 43.0 °F 100% 29.92 in 6.0 mi WNW 8.1 mph - N/A   Overcast
10:41 PM 42.8 °F 39.3 °F 42.8 °F 100% 29.91 in 5.0 mi WNW 5.8 mph - N/A   Mostly Cloudy
10:52 PM 41.0 °F 38.0 °F 41.0 °F 100% 29.90 in 5.0 mi West 4.6 mph - N/A   Partly Cloudy
10:54 PM 41.0 °F 39.0 °F 41.0 °F 100% 29.91 in 5.0 mi West 3.5 mph - N/A   Partly Cloudy
11:18 PM 41.0 °F 37.1 °F 41.0 °F 100% 29.90 in 5.0 mi West 5.8 mph - N/A   Mostly Cloudy
11:22 PM 41.0 °F 36.4 °F 41.0 °F 100% 29.90 in 4.0 mi West 6.9 mph - N/A   Mostly Cloudy
11:38 PM 41.0 °F 37.1 °F 41.0 °F 100% 29.90 in 2.0 mi West 5.8 mph - N/A   Overcast
11:54 PM 41.0 °F 38.0 °F 41.0 °F 100% 29.91 in 4.0 mi West 4.6 mph - N/A   Overcast